• In Hungary
  • List of Countries
  • For 7 days
  • Water Temperature
  • Satellite Maps
  • Weather Map
  • News
  • Weather Widgets
  • user-avatar
    Login

    Hourly Weather Hudayberdino

    Today, 22 May, Tuesday

    Time Temperature Precipitation Wind Pressure Humidity
    00:00 +6°C° 0 mm 2 mps 724 mmHg 91%
    01:00 +5°C° 0 mm 2 mps 724 mmHg 93%
    02:00 +6°C° 0 mm 1 mps 724 mmHg 93%
    03:00 +5°C° 0 mm 1 mps 724 mmHg 93%
    04:00 +4°C° 0 mm 1 mps 725 mmHg 94%
    05:00 +6°C° 0 mm 1 mps 725 mmHg 83%
    06:00 +7°C° 0 mm 2 mps 726 mmHg 71%
    07:00 +9°C° 0 mm 2 mps 726 mmHg 59%
    08:00 +12°C° 0 mm 2 mps 726 mmHg 54%
    09:00 +13°C° 0 mm 3 mps 726 mmHg 49%
    10:00 +15°C° 0 mm 4 mps 726 mmHg 43%
    11:00 +17°C° 0 mm 4 mps 726 mmHg 43%
    12:00 +17°C° 0 mm 4 mps 726 mmHg 43%
    13:00 +17°C° 0 mm 5 mps 726 mmHg 43%
    14:00 +19°C° 0 mm 5 mps 726 mmHg 45%
    15:00 +19°C° 0 mm 5 mps 726 mmHg 47%
    16:00 +19°C° 0 mm 5 mps 726 mmHg 49%
    17:00 +17°C° 0 mm 5 mps 726 mmHg 54%
    18:00 +18°C° 0 mm 4 mps 726 mmHg 60%
    19:00 +17°C° 0 mm 4 mps 726 mmHg 66%
    20:00 +14°C° 0 mm 3 mps 726 mmHg 74%
    21:00 +14°C° 0 mm 2 mps 725 mmHg 81%
    22:00 +12°C° 0 mm 2 mps 725 mmHg 89%
    23:00 +12°C° 0 mm 1 mps 725 mmHg 91%

    Tomorrow, 23 May, Wednesday

    Time Temperature Precipitation Wind Pressure Humidity
    00:00 +11°C° 0 mm 1 mps 725 mmHg 92%
    01:00 +11°C° 0 mm 1 mps 725 mmHg 94%
    02:00 +10°C° 0 mm 1 mps 726 mmHg 94%
    03:00 +10°C° 0 mm 1 mps 726 mmHg 94%
    04:00 +9°C° 0 mm 0 mps 726 mmHg 95%
    05:00 +11°C° 0 mm 0 mps 727 mmHg 87%
    06:00 +13°C° 0 mm 0 mps 727 mmHg 80%
    07:00 +15°C° 0 mm 0 mps 728 mmHg 73%
    08:00 +19°C° 0 mm 1 mps 728 mmHg 65%
    09:00 +21°C° 0 mm 1 mps 728 mmHg 57%
    10:00 +23°C° 0 mm 2 mps 728 mmHg 49%
    11:00 +24°C° 0 mm 2 mps 728 mmHg 47%
    12:00 +25°C° 0 mm 3 mps 728 mmHg 45%
    13:00 +25°C° 0 mm 3 mps 728 mmHg 43%
    14:00 +25°C° 0 mm 3 mps 727 mmHg 44%
    15:00 +25°C° 0 mm 3 mps 727 mmHg 45%
    16:00 +25°C° 0 mm 4 mps 727 mmHg 46%
    17:00 +24°C° 0 mm 3 mps 726 mmHg 53%
    18:00 +21°C° 0 mm 2 mps 726 mmHg 60%
    19:00 +20°C° 0 mm 2 mps 726 mmHg 66%
    20:00 +18°C° 0 mm 2 mps 725 mmHg 73%
    21:00 +17°C° 0 mm 2 mps 725 mmHg 79%
    22:00 +15°C° 0 mm 1 mps 725 mmHg 85%
    23:00 +14°C° 0 mm 1 mps 725 mmHg 87%

    Day after tomorrow, 24 May, Thursday

    Time Temperature Precipitation Wind Pressure Humidity
    00:00 +14°C° 0 mm 1 mps 724 mmHg 88%
    01:00 +13°C° 0 mm 1 mps 724 mmHg 90%
    02:00 +13°C° 0 mm 2 mps 724 mmHg 89%
    03:00 +13°C° 0 mm 2 mps 724 mmHg 87%
    04:00 +13°C° 0 mm 2 mps 723 mmHg 86%
    05:00 +15°C° 0 mm 2 mps 723 mmHg 79%
    06:00 +17°C° 0 mm 2 mps 723 mmHg 72%
    07:00 +18°C° 0 mm 3 mps 723 mmHg 65%
    08:00 +20°C° 0 mm 4 mps 723 mmHg 60%
    09:00 +21°C° 0 mm 4 mps 723 mmHg 54%
    10:00 +23°C° 0 mm 5 mps 723 mmHg 49%
    11:00 +23°C° 0 mm 5 mps 722 mmHg 48%
    12:00 +23°C° 0 mm 5 mps 722 mmHg 47%
    13:00 +25°C° 0 mm 5 mps 721 mmHg 47%
    14:00 +25°C° 0 mm 5 mps 721 mmHg 47%
    15:00 +23°C° 0 mm 5 mps 721 mmHg 48%
    16:00 +23°C° 0 mm 5 mps 720 mmHg 49%
    17:00 +22°C° 0.1 mm 4 mps 720 mmHg 56%
    18:00 +20°C° 0.1 mm 3 mps 720 mmHg 64%
    19:00 +18°C° 0.1 mm 2 mps 719 mmHg 72%
    20:00 +17°C° 0.1 mm 2 mps 719 mmHg 76%
    21:00 +16°C° 0.1 mm 1 mps 719 mmHg 81%
    22:00 +15°C° 0.1 mm 1 mps 718 mmHg 85%
    23:00 +14°C° 0.1 mm 1 mps 718 mmHg 88%

    25 May, Friday

    Time Temperature Precipitation Wind Pressure Humidity
    00:00 +14°C° 0.1 mm 1 mps 717 mmHg 91%
    01:00 +13°C° 0.1 mm 1 mps 717 mmHg 93%
    02:00 +13°C° 0.1 mm 1 mps 716 mmHg 94%
    03:00 +13°C° 0.1 mm 1 mps 716 mmHg 94%
    04:00 +12°C° 0.1 mm 1 mps 715 mmHg 95%
    05:00 +13°C° 0.5 mm 2 mps 715 mmHg 93%
    06:00 +14°C° 0.5 mm 2 mps 715 mmHg 91%
    07:00 +14°C° 0.5 mm 3 mps 714 mmHg 90%
    08:00 +13°C° 1.6 mm 3 mps 714 mmHg 91%
    09:00 +13°C° 1.6 mm 4 mps 715 mmHg 92%
    10:00 +12°C° 1.6 mm 4 mps 715 mmHg 94%
    11:00 +12°C° 0.2 mm 4 mps 715 mmHg 89%
    12:00 +12°C° 0.2 mm 4 mps 715 mmHg 83%
    13:00 +12°C° 0.2 mm 4 mps 716 mmHg 78%
    14:00 +13°C° 0 mm 4 mps 716 mmHg 70%
    15:00 +13°C° 0 mm 4 mps 716 mmHg 62%
    16:00 +14°C° 0 mm 4 mps 716 mmHg 54%
    17:00 +12°C° 0.1 mm 4 mps 716 mmHg 59%
    18:00 +11°C° 0.1 mm 4 mps 717 mmHg 64%
    19:00 +8°C° 0.1 mm 4 mps 717 mmHg 70%
    20:00 +8°C° 0.1 mm 3 mps 717 mmHg 72%
    21:00 +7°C° 0.1 mm 3 mps 717 mmHg 74%
    22:00 +5°C° 0.1 mm 3 mps 717 mmHg 77%
    23:00 +5°C° 0 mm 3 mps 717 mmHg 76%

    26 May, Saturday

    Time Temperature Precipitation Wind Pressure Humidity
    00:00 +4°C° 0 mm 3 mps 717 mmHg 75%
    01:00 +3°C° 0 mm 3 mps 718 mmHg 74%
    02:00 +2°C° 0 mm 3 mps 718 mmHg 76%
    03:00 +2°C° 0 mm 3 mps 718 mmHg 78%
    04:00 +1°C° 0 mm 3 mps 718 mmHg 80%
    05:00 +2°C° 0 mm 3 mps 719 mmHg 75%
    06:00 +3°C° 0 mm 3 mps 719 mmHg 70%
    07:00 +4°C° 0 mm 4 mps 720 mmHg 65%
    08:00 +5°C° 0.1 mm 4 mps 720 mmHg 60%
    09:00 +6°C° 0.1 mm 4 mps 720 mmHg 55%
    10:00 +7°C° 0.1 mm 5 mps 720 mmHg 51%
    11:00 +8°C° 0 mm 5 mps 721 mmHg 48%
    12:00 +8°C° 0 mm 5 mps 721 mmHg 45%
    13:00 +9°C° 0 mm 5 mps 721 mmHg 42%
    14:00 +9°C° 0 mm 5 mps 722 mmHg 41%
    15:00 +9°C° 0 mm 5 mps 722 mmHg 39%
    16:00 +9°C° 0 mm 5 mps 723 mmHg 38%
    17:00 +8°C° 0 mm 5 mps 723 mmHg 41%
    18:00 +7°C° 0 mm 4 mps 723 mmHg 43%
    19:00 +8°C° 0 mm 3 mps 723 mmHg 45%
    20:00 +5°C° 0 mm 3 mps 724 mmHg 53%
    21:00 +4°C° 0 mm 2 mps 724 mmHg 60%
    22:00 +3°C° 0 mm 1 mps 724 mmHg 67%
    23:00 +2°C° 0 mm 1 mps 724 mmHg 69%

    27 May, Sunday

    Time Temperature Precipitation Wind Pressure Humidity
    00:00 +2°C° 0 mm 1 mps 724 mmHg 72%
    01:00 0°C° 0 mm 0 mps 725 mmHg 74%
    02:00 0°C° 0 mm 0 mps 725 mmHg 76%
    03:00 +1°C° 0 mm 1 mps 725 mmHg 78%
    04:00 +1°C° 0 mm 1 mps 725 mmHg 80%
    05:00 +3°C° 0 mm 1 mps 725 mmHg 72%
    06:00 +4°C° 0 mm 2 mps 725 mmHg 65%
    07:00 +7°C° 0 mm 2 mps 725 mmHg 58%
    08:00 +9°C° 0 mm 3 mps 725 mmHg 54%
    09:00 +10°C° 0 mm 4 mps 724 mmHg 50%
    10:00 +12°C° 0 mm 4 mps 724 mmHg 46%
    11:00 +13°C° 0 mm 5 mps 724 mmHg 47%
    12:00 +14°C° 0 mm 5 mps 723 mmHg 47%
    13:00 +15°C° 0 mm 6 mps 722 mmHg 48%
    14:00 +14°C° 0 mm 5 mps 722 mmHg 56%
    15:00 +13°C° 0 mm 5 mps 721 mmHg 63%
    16:00 +12°C° 0 mm 5 mps 721 mmHg 70%
    17:00 +12°C° 0.2 mm 5 mps 720 mmHg 75%
    18:00 +12°C° 0.2 mm 4 mps 719 mmHg 80%
    19:00 +12°C° 0.2 mm 4 mps 719 mmHg 86%
    20:00 +12°C° 0.5 mm 4 mps 718 mmHg 87%
    21:00 +12°C° 0.5 mm 5 mps 718 mmHg 89%
    22:00 +10°C° 0.5 mm 5 mps 717 mmHg 91%
    23:00 +10°C° 0.3 mm 5 mps 717 mmHg 92%
    Show more